FW8676 Weather Reports


Display with metric or nautical units.
time (UTC)temp
F
wind
direction
speed
MPH
gust
MPH
rain 1hr
in
rain 24hr
in
rain mn
in
humidity
%
barometer
mb
20260505041615 61 173 0.0 4.0 0.00 0.00 0.00 67 1011.4
20260505040056 62 125 1.0 5.0 0.00 0.00 0.00 65 1011.5
20260505034604 62 143 2.0 10.0 0.00 0.00 0.00 64 1011.3
20260505033059 61 165 1.0 4.0 0.00 0.00 0.00 65 1011.2
20260505031606 61 0 0.0 3.0 0.00 0.00 0.00 64 1011.3
20260505030058 61 148 1.0 6.0 0.00 0.00 0.00 62 1011.2
20260505024555 61 0 0.0 4.0 0.00 0.00 0.00 61 1011.4
20260505023101 61 163 0.0 4.0 0.00 0.00 0.00 61 1011.5
20260505021558 61 177 0.0 2.0 0.00 0.00 0.00 60 1011.5
20260505020053 62 0 0.0 2.0 0.00 0.00 0.00 57 1011.5
20260505014553 62 0 0.0 2.0 0.00 0.00 0.00 55 1011.4
20260505013059 63 170 0.0 4.0 0.00 0.00 0.00 53 1011.3
20260505011557 63 0 0.0 2.0 0.00 0.00 0.00 53 1011.1
20260505004552 65 0 0.0 4.0 0.00 0.00 0.00 51 1011.0
20260505003059 66 0 0.0 2.0 0.00 0.00 0.00 49 1010.9
20260505001558 68 170 1.0 8.0 0.00 0.00 0.00 45 1010.9
20260505000108 69 160 2.0 11.0 0.00 0.00 0.00 44 1010.9
20260504234619 70 189 1.0 11.0 0.00 0.00 0.00 43 1010.9
20260504233054 71 185 2.0 9.0 0.00 0.00 0.00 42 1010.7
20260504231604 71 183 2.0 8.0 0.00 0.00 0.00 41 1010.8
20260504230058 72 0 1.0 10.0 0.00 0.00 0.00 41 1010.6
20260504224555 72 174 1.0 11.0 0.00 0.00 0.00 39 1010.6
20260504223054 73 187 5.0 12.0 0.00 0.00 0.00 37 1010.6
20260504221602 73 120 4.0 10.0 0.00 0.00 0.00 38 1010.7
20260504220058 73 161 3.0 9.0 0.00 0.00 0.00 41 1010.8
20260504214555 73 214 3.0 15.0 0.00 0.00 0.00 40 1010.9
20260504213051 72 243 3.0 17.0 0.00 0.00 0.00 40 1011.1
20260504211558 73 168 4.0 13.0 0.00 0.00 0.00 38 1011.0
20260504210109 73 176 4.0 10.0 0.00 0.00 0.00 38 1011.0
20260504204602 73 193 5.0 12.0 0.00 0.00 0.00 38 1010.9
20260504203058 73 175 4.0 12.0 0.00 0.00 0.00 38 1010.9
20260504201556 72 132 5.0 13.0 0.00 0.00 0.00 38 1011.3
20260504200100 72 220 4.0 14.0 0.00 0.00 0.00 38 1011.5
20260504194608 72 145 4.0 9.0 0.00 0.00 0.00 38 1011.7
20260504193055 72 181 3.0 10.0 0.00 0.00 0.00 37 1012.0
20260504191554 72 166 4.0 15.0 0.00 0.00 0.00 38 1012.2
20260504190117 72 236 3.0 11.0 0.00 0.00 0.00 39 1012.2
20260504184558 72 216 2.0 12.0 0.00 0.00 0.00 40 1012.5
20260504183056 71 154 5.0 10.0 0.00 0.00 0.00 39 1012.6
20260504181558 71 241 3.0 13.0 0.00 0.00 0.00 38 1012.9
20260504180144 71 174 2.0 9.0 0.00 0.00 0.00 38 1012.9
20260504174556 70 168 4.0 10.0 0.00 0.00 0.00 36 1013.2
20260504173113 70 129 6.0 19.0 0.00 0.00 0.00 37 1013.4
20260504171556 69 258 2.0 16.0 0.00 0.00 0.00 39 1013.6
20260504140109 61 179 4.0 11.0 0.00 0.00 0.00 55 1014.9
20260504120112 54 181 4.0 13.0 0.00 0.00 0.00 76 1015.5
20260504081555 47 0 0.0 5.0 0.00 0.00 0.00 76 1016.0
20260504050136 50 190 0.0 5.0 0.00 0.00 0.00 60 1015.7